EAL965 KRDU-KILM

Flight info

Callsign EAL965
Flight time 0h 28m
Altitude 13000
Route ROZBO5 ROZBO
Aircraft A310/H-DGVW/C

Departure

Time 2026-05-07 01:14
Airport Raleigh-Durham International Airport (KRDU)

Arrival

Time 2026-05-07 01:42
Airport Wilmington International Airport (KILM)
Time Latitude Longitude Altitude Speed Heading
2026-05-07 00:52 35.89076 -78.77606 420 ft 0 kts 134°
2026-05-07 01:06 35.89087 -78.77619 409 ft 3 kts 134°
2026-05-07 01:06 35.89100 -78.77637 417 ft 3 kts 134°
2026-05-07 01:06 35.89113 -78.77656 408 ft 2 kts 106°
2026-05-07 01:09 35.89112 -78.77655 419 ft 0 kts 105°
2026-05-07 01:10 35.89115 -78.77646 411 ft 1 kts 65°
2026-05-07 01:10 35.89126 -78.77635 420 ft 5 kts 43°
2026-05-07 01:10 35.89145 -78.77615 414 ft 4 kts 41°
2026-05-07 01:10 35.89166 -78.77599 414 ft 3 kts 21°
2026-05-07 01:11 35.89196 -78.77604 414 ft 5 kts 337°
2026-05-07 01:11 35.89222 -78.77630 420 ft 5 kts 316°
2026-05-07 01:11 35.89231 -78.77642 420 ft 0 kts 314°
2026-05-07 01:12 35.89265 -78.77683 415 ft 0 kts 315°
2026-05-07 01:12 35.89270 -78.77689 416 ft 4 kts 315°
2026-05-07 01:12 35.89324 -78.77754 425 ft 21 kts 316°
2026-05-07 01:13 35.89339 -78.77862 421 ft 12 kts 230°
2026-05-07 01:13 35.89227 -78.77999 413 ft 46 kts 224°
2026-05-07 01:13 35.88806 -78.78516 415 ft 124 kts 224°
2026-05-07 01:13 35.88032 -78.79475 471 ft 183 kts 225°
2026-05-07 01:14 35.87150 -78.80627 1306 ft 182 kts 227°
2026-05-07 01:14 35.86247 -78.81770 2179 ft 190 kts 226°
2026-05-07 01:14 35.85332 -78.82917 2333 ft 183 kts 226°
2026-05-07 01:14 35.84471 -78.83993 2696 ft 174 kts 226°
2026-05-07 01:15 35.83593 -78.85052 3173 ft 187 kts 226°
2026-05-07 01:15 35.82571 -78.86260 3649 ft 215 kts 226°
2026-05-07 01:15 35.81402 -78.87508 4119 ft 232 kts 213°
2026-05-07 01:15 35.79801 -78.88022 4634 ft 249 kts 188°
2026-05-07 01:16 35.78048 -78.87619 5131 ft 267 kts 162°
2026-05-07 01:16 35.76378 -78.86525 5827 ft 273 kts 159°
2026-05-07 01:16 35.74683 -78.85458 6553 ft 280 kts 159°
2026-05-07 01:16 35.72932 -78.84341 7275 ft 286 kts 159°
2026-05-07 01:17 35.71161 -78.83205 7992 ft 289 kts 159°
2026-05-07 01:17 35.69365 -78.82049 8744 ft 292 kts 159°
2026-05-07 01:17 35.67547 -78.80879 9512 ft 296 kts 159°
2026-05-07 01:17 35.65707 -78.79698 10245 ft 300 kts 159°
2026-05-07 01:18 35.63844 -78.78513 10952 ft 303 kts 159°
2026-05-07 01:18 35.61945 -78.77320 11518 ft 309 kts 159°
2026-05-07 01:18 35.60025 -78.76087 11778 ft 313 kts 159°
2026-05-07 01:18 35.58095 -78.74845 11906 ft 314 kts 159°
2026-05-07 01:19 35.56106 -78.73571 12002 ft 339 kts 159°
2026-05-07 01:19 35.53963 -78.72225 12031 ft 359 kts 158°
2026-05-07 01:19 35.51732 -78.70814 12029 ft 361 kts 161°
2026-05-07 01:19 35.49353 -78.70033 12030 ft 351 kts 178°
2026-05-07 01:20 35.46932 -78.69741 12031 ft 349 kts 181°
2026-05-07 01:20 35.44502 -78.69499 12015 ft 350 kts 181°
2026-05-07 01:20 35.42078 -78.69216 12038 ft 350 kts 180°
2026-05-07 01:20 35.39686 -78.68896 12314 ft 351 kts 180°
2026-05-07 01:21 35.37218 -78.68559 12756 ft 362 kts 180°
2026-05-07 01:21 35.34685 -78.68215 12922 ft 368 kts 180°
2026-05-07 01:21 35.32121 -78.67854 13011 ft 372 kts 179°
2026-05-07 01:21 35.29539 -78.67473 13006 ft 375 kts 179°
2026-05-07 01:22 35.26940 -78.67112 13012 ft 376 kts 179°
2026-05-07 01:22 35.24333 -78.66724 13007 ft 376 kts 179°
2026-05-07 01:22 35.21728 -78.66359 13006 ft 376 kts 180°
2026-05-07 01:22 35.19154 -78.66003 13002 ft 377 kts 179°
2026-05-07 01:23 35.16547 -78.65617 12998 ft 377 kts 179°
2026-05-07 01:23 35.13934 -78.65255 12982 ft 377 kts 180°
2026-05-07 01:23 35.11321 -78.64882 12999 ft 378 kts 179°
2026-05-07 01:23 35.08705 -78.64510 12997 ft 378 kts 179°
2026-05-07 01:24 35.06088 -78.64146 12981 ft 378 kts 179°
2026-05-07 01:24 35.03519 -78.63774 12591 ft 372 kts 179°
2026-05-07 01:24 35.00970 -78.63398 11924 ft 367 kts 179°
2026-05-07 01:24 34.98450 -78.63025 11424 ft 358 kts 179°
2026-05-07 01:25 34.96035 -78.62693 11178 ft 341 kts 179°
2026-05-07 01:25 34.93739 -78.62376 11064 ft 323 kts 179°
2026-05-07 01:25 34.91571 -78.62061 11007 ft 304 kts 179°
2026-05-07 01:25 34.89535 -78.61750 11010 ft 285 kts 179°
2026-05-07 01:26 34.87631 -78.61442 11012 ft 268 kts 179°
2026-05-07 01:26 34.85900 -78.61131 11007 ft 269 kts 173°
2026-05-07 01:26 34.84213 -78.60128 11017 ft 281 kts 144°
2026-05-07 01:26 34.82889 -78.58306 11048 ft 300 kts 131°
2026-05-07 01:27 34.81584 -78.56142 11069 ft 327 kts 130°
2026-05-07 01:27 34.80254 -78.53904 11031 ft 326 kts 129°
2026-05-07 01:27 34.78931 -78.51671 11035 ft 326 kts 129°
2026-05-07 01:27 34.77592 -78.49439 11031 ft 325 kts 132°
2026-05-07 01:28 34.76098 -78.47393 11029 ft 323 kts 137°
2026-05-07 01:28 34.74558 -78.45404 11028 ft 322 kts 137°
2026-05-07 01:28 34.73250 -78.43185 11031 ft 327 kts 116°
2026-05-07 01:28 34.72597 -78.40518 10935 ft 333 kts 103°
2026-05-07 01:29 34.72149 -78.37745 10558 ft 334 kts 102°
2026-05-07 01:29 34.71739 -78.35010 10100 ft 333 kts 101°
2026-05-07 01:29 34.71331 -78.32254 9614 ft 330 kts 101°
2026-05-07 01:29 34.70925 -78.29515 9107 ft 328 kts 101°
2026-05-07 01:30 34.70523 -78.26795 8600 ft 326 kts 101°
2026-05-07 01:30 34.70120 -78.24093 8126 ft 323 kts 101°
2026-05-07 01:30 34.69722 -78.21435 7766 ft 317 kts 101°
2026-05-07 01:30 34.69328 -78.18819 7408 ft 313 kts 101°
2026-05-07 01:31 34.68938 -78.16231 7049 ft 310 kts 101°
2026-05-07 01:31 34.68552 -78.13656 6700 ft 308 kts 101°
2026-05-07 01:31 34.68168 -78.11104 6338 ft 305 kts 101°
2026-05-07 01:31 34.67793 -78.08604 5973 ft 303 kts 101°
2026-05-07 01:32 34.67419 -78.06086 5609 ft 302 kts 101°
2026-05-07 01:32 34.67020 -78.03596 5315 ft 298 kts 109°
2026-05-07 01:32 34.66075 -78.01401 5087 ft 292 kts 128°
2026-05-07 01:32 34.64943 -77.99554 4841 ft 292 kts 131°
2026-05-07 01:33 34.63711 -77.97607 4570 ft 290 kts 131°
2026-05-07 01:33 34.62485 -77.95671 4239 ft 288 kts 131°
2026-05-07 01:33 34.61279 -77.93757 3734 ft 284 kts 131°
2026-05-07 01:33 34.60086 -77.91854 3205 ft 283 kts 131°
2026-05-07 01:34 34.58907 -77.89957 2676 ft 280 kts 131°
2026-05-07 01:34 34.57754 -77.88065 2286 ft 275 kts 131°
2026-05-07 01:34 34.56669 -77.86230 2152 ft 259 kts 131°
2026-05-07 01:34 34.55569 -77.84649 2045 ft 236 kts 151°
2026-05-07 01:35 34.54227 -77.83718 2035 ft 212 kts 161°
2026-05-07 01:35 34.52961 -77.82932 2032 ft 197 kts 161°
2026-05-07 01:35 34.51724 -77.82168 2037 ft 199 kts 161°
2026-05-07 01:35 34.50538 -77.81426 2036 ft 183 kts 161°
2026-05-07 01:36 34.49415 -77.80727 2010 ft 181 kts 161°
2026-05-07 01:36 34.48299 -77.80035 1997 ft 180 kts 161°
2026-05-07 01:36 34.47185 -77.79339 2006 ft 183 kts 161°
2026-05-07 01:36 34.46053 -77.78641 1999 ft 183 kts 162°
2026-05-07 01:37 34.44931 -77.77918 2006 ft 183 kts 161°
2026-05-07 01:37 34.43809 -77.77191 2002 ft 181 kts 161°
2026-05-07 01:37 34.42690 -77.76496 1999 ft 177 kts 169°
2026-05-07 01:37 34.41543 -77.76483 2006 ft 163 kts 200°
2026-05-07 01:38 34.40466 -77.76932 1999 ft 163 kts 202°
2026-05-07 01:38 34.39387 -77.77317 2002 ft 160 kts 201°
2026-05-07 01:38 34.38297 -77.77690 1966 ft 161 kts 202°
2026-05-07 01:38 34.37221 -77.78042 1988 ft 163 kts 200°
2026-05-07 01:39 34.36181 -77.78495 2002 ft 159 kts 215°
2026-05-07 01:39 34.35252 -77.79223 2018 ft 159 kts 214°
2026-05-07 01:39 34.34399 -77.80057 1990 ft 158 kts 227°
2026-05-07 01:39 34.33653 -77.81013 1793 ft 151 kts 226°
2026-05-07 01:40 34.32950 -77.81917 1560 ft 143 kts 228°
2026-05-07 01:40 34.32287 -77.82783 1386 ft 140 kts 229°
2026-05-07 01:40 34.31635 -77.83655 1203 ft 139 kts 227°
2026-05-07 01:40 34.30981 -77.84533 1025 ft 140 kts 227°
2026-05-07 01:41 34.30329 -77.85413 811 ft 140 kts 226°
2026-05-07 01:41 34.29665 -77.86300 639 ft 146 kts 226°
2026-05-07 01:41 34.28988 -77.87225 451 ft 148 kts 226°
2026-05-07 01:41 34.28302 -77.88155 237 ft 148 kts 226°
2026-05-07 01:42 34.27620 -77.89094 63 ft 149 kts 227°
2026-05-07 01:42 34.26995 -77.89933 36 ft 118 kts 227°
2026-05-07 01:42 34.26573 -77.90508 35 ft 49 kts 227°
2026-05-07 01:42 34.26410 -77.90727 37 ft 19 kts 231°
2026-05-07 01:43 34.26322 -77.90844 35 ft 19 kts 225°
2026-05-07 01:43 34.26234 -77.90962 35 ft 19 kts 248°
2026-05-07 01:43 34.26271 -77.91082 35 ft 15 kts 321°
2026-05-07 01:43 34.26276 -77.91087 35 ft 0 kts 321°
2026-05-07 01:44 34.26367 -77.91079 36 ft 18 kts 42°
2026-05-07 01:45 34.26456 -77.90963 34 ft 19 kts 48°
2026-05-07 01:45 34.26547 -77.90843 36 ft 20 kts 48°
2026-05-07 01:45 34.26613 -77.90823 37 ft 7 kts 314°
2026-05-07 01:45 34.26635 -77.90855 36 ft 0 kts 311°